Del Rio, TX

4:55 PM CST on December 13, 2017 (GMT -0600)
Del Rio International

Weather History for KDRT - April, 2014

Change the Weather History Date:

Thursday, April 24, 2014

  Actual Average Record
Temperature  
Mean Temperature 83 °F 74 °F  
Max Temperature 98 °F 85 °F 99 °F (1978)
Min Temperature 67 °F 62 °F 46 °F (1968)
Degree Days  
Heating Degree Days 0 0  
Month to date heating degree days 14 24  
Since 1 July heating degree days 1555 1374  
Cooling Degree Days 18 9  
Month to date cooling degree days 206 164  
Year to date cooling degree days 335 270  
Growing Degree Days 33 (Base 50)    
Moisture  
Dew Point 44 °F    
Average Humidity 43    
Maximum Humidity 81    
Minimum Humidity 5    
Precipitation  
Precipitation 0.00 in 0.06 in 2.69 in (1966)
Month to date precipitation 0.08 1.24  
Year to date precipitation 0.62 3.98  
Sea Level Pressure  
Sea Level Pressure 29.77 in    
Wind  
Wind Speed 9 mph (NNE)    
Max Wind Speed 20 mph    
Max Gust Speed 27 mph    
Visibility 10 miles    
Events      
T = Trace of Precipitation, MM = Missing Value Source: NWS Daily Summary

Daily Weather History Graph

Daily Weather History Graph

Search for Another Location

Airport or City:

Trip Planner

Search our weather history database for the weather conditions in past years. The results will help you decide how hot, cold, wet, or windy it might be!

Date:

Astronomy

Apr. 24, 2014 Rise Set
Actual Time 7:08 AM CDT 8:15 PM CDT
Civil Twilight 6:43 AM CDT 8:40 PM CDT
Nautical Twilight 6:14 AM CDT 9:10 PM CDT
Astronomical Twilight 5:43 AM CDT 9:40 PM CDT
Moon 3:57 AM CDT (4/24) 3:54 PM CDT (4/24)
Length of Visible Light 13h 57m
Length of Day
13h 07m
Waning Crescent, 24% of the Moon is Illuminated
Apr 24
Waning Crescent
Apr 29
New
May 6
First Quarter
May 14
Full
May 21
Last Quarter

Hourly Weather History & Observations

Time (CDT) Temp. Heat Index Dew Point Humidity Pressure Visibility Wind Dir Wind Speed Gust Speed Precip Events Conditions
12:53 AM 71.1 °F - 62.1 °F 73% 29.69 in 10.0 mi SE 4.6 mph - N/A   Clear
1:53 AM 71.1 °F - 63.0 °F 75% 29.68 in 10.0 mi ESE 6.9 mph - N/A   Clear
2:53 AM 73.0 °F - 63.0 °F 71% 29.68 in 10.0 mi ESE 10.4 mph - N/A   Clear
3:53 AM 71.1 °F - 62.1 °F 73% 29.67 in 10.0 mi East 11.5 mph - N/A   Clear
4:53 AM 70.0 °F - 62.1 °F 76% 29.68 in 10.0 mi ESE 12.7 mph - N/A   Clear
5:53 AM 69.1 °F - 61.0 °F 75% 29.71 in 10.0 mi East 9.2 mph - N/A   Clear
6:53 AM 68.0 °F - 61.0 °F 78% 29.75 in 10.0 mi East 5.8 mph - N/A   Clear
7:53 AM 68.0 °F - 62.1 °F 81% 29.78 in 10.0 mi East 4.6 mph - N/A   Clear
8:53 AM 70.0 °F - 62.1 °F 76% 29.81 in 10.0 mi North - - N/A   Unknown
9:53 AM 73.0 °F - 62.1 °F 68% 29.84 in 10.0 mi Calm Calm - N/A   Clear
10:53 AM 79.0 °F - 62.1 °F 56% 29.84 in 10.0 mi West 9.2 mph - N/A   Clear
11:53 AM 82.9 °F 83.2 °F 60.1 °F 46% 29.85 in 10.0 mi WNW 11.5 mph - N/A   Clear
12:53 PM 88.0 °F 86.1 °F 55.0 °F 32% 29.84 in 10.0 mi NW 11.5 mph 20.7 mph N/A   Clear
1:53 PM 93.9 °F - 46.0 °F 19% 29.81 in 10.0 mi NNW 10.4 mph 20.7 mph N/A   Clear
2:53 PM 96.1 °F - 25.0 °F 8% 29.77 in 10.0 mi NNW 8.1 mph 25.3 mph N/A   Clear
3:53 PM 97.0 °F - 21.0 °F 6% 29.76 in 10.0 mi NNW 13.8 mph 23.0 mph N/A   Clear
4:53 PM 97.0 °F - 18.0 °F 6% 29.75 in 10.0 mi NNW 10.4 mph 19.6 mph N/A   Clear
5:53 PM 96.1 °F - 18.0 °F 6% 29.74 in 10.0 mi NNW 13.8 mph 19.6 mph N/A   Clear
6:53 PM 95.0 °F - 16.0 °F 6% 29.75 in 10.0 mi North 9.2 mph 19.6 mph N/A   Clear
7:53 PM 91.0 °F - 18.0 °F 7% 29.76 in 10.0 mi North 10.4 mph 18.4 mph N/A   Overcast
8:53 PM 86.0 °F - 21.0 °F 9% 29.79 in 9.0 mi North 5.8 mph - N/A   Overcast
9:53 PM 81.0 °F - 24.1 °F 12% 29.82 in 10.0 mi North 5.8 mph - N/A   Overcast
10:53 PM 81.0 °F - 23.0 °F 12% 29.84 in 10.0 mi NE 8.1 mph - N/A   Overcast
11:53 PM 78.1 °F - 24.1 °F 14% 29.85 in 10.0 mi ENE 10.4 mph - N/A   Overcast